| time (UTC) | temp F | wind direction | speed knots | gust knots | rain 1hr in | rain 24hr in | rain mn in | humidity % | barometer mb |
| 20260507114023 | 68 | 24 | 0.9 | 3.5 | 0.00 | 0.00 | 0.00 | 68 | 1015.8 |
| 20260507113520 | 68 | 25 | 0.9 | 3.5 | 0.00 | 0.00 | 0.00 | 67 | 1015.7 |
| 20260507113038 | 68 | 345 | 0.9 | 2.6 | 0.00 | 0.00 | 0.00 | 68 | 1015.6 |
| 20260507112521 | 68 | 344 | 0.9 | 1.7 | 0.00 | 0.00 | 0.00 | 68 | 1015.6 |
| 20260507112021 | 68 | 345 | 0.9 | 3.5 | 0.00 | 0.00 | 0.00 | 68 | 1015.6 |
| 20260507111521 | 68 | 345 | 0.0 | 2.6 | 0.00 | 0.00 | 0.00 | 68 | 1015.5 |
| 20260507111017 | 68 | 359 | 0.0 | 1.7 | 0.00 | 0.00 | 0.00 | 69 | 1015.5 |
| 20260507110519 | 68 | 345 | 0.0 | 2.6 | 0.00 | 0.00 | 0.00 | 69 | 1015.5 |
| 20260507110017 | 68 | 344 | 0.0 | 2.6 | 0.00 | 0.00 | 0.00 | 70 | 1015.4 |
| 20260507105515 | 68 | 345 | 0.0 | 1.7 | 0.00 | 0.00 | 0.00 | 70 | 1015.6 |
| 20260507105015 | 68 | 345 | 0.0 | 2.6 | 0.00 | 0.00 | 0.00 | 70 | 1015.6 |
| 20260507104515 | 68 | 345 | 0.0 | 2.6 | 0.00 | 0.00 | 0.00 | 71 | 1015.4 |
| 20260507104015 | 68 | 345 | 0.9 | 3.5 | 0.00 | 0.00 | 0.00 | 71 | 1015.3 |
| 20260507103516 | 68 | 359 | 1.7 | 3.5 | 0.00 | 0.00 | 0.00 | 71 | 1015.2 |
| 20260507103018 | 68 | 20 | 1.7 | 4.3 | 0.00 | 0.00 | 0.00 | 72 | 1015.4 |
| 20260507102513 | 68 | 359 | 1.7 | 4.3 | 0.00 | 0.00 | 0.00 | 72 | 1015.3 |
| 20260507102011 | 68 | 359 | 2.6 | 5.2 | 0.00 | 0.00 | 0.00 | 72 | 1015.2 |
| 20260507101516 | 69 | 14 | 2.6 | 7.0 | 0.00 | 0.00 | 0.00 | 72 | 1015.2 |
| 20260507101010 | 69 | 359 | 2.6 | 7.0 | 0.00 | 0.00 | 0.00 | 73 | 1015.2 |
| 20260507100508 | 69 | 345 | 3.5 | 7.0 | 0.00 | 0.00 | 0.00 | 73 | 1015.2 |
| 20260507100007 | 69 | 31 | 1.7 | 5.2 | 0.00 | 0.00 | 0.00 | 73 | 1014.8 |
| 20260507095507 | 69 | 341 | 1.7 | 3.5 | 0.00 | 0.00 | 0.00 | 73 | 1014.8 |
| 20260507095007 | 69 | 316 | 1.7 | 4.3 | 0.00 | 0.00 | 0.00 | 73 | 1014.8 |
| 20260507094506 | 69 | 359 | 1.7 | 5.2 | 0.00 | 0.00 | 0.00 | 73 | 1014.8 |
| 20260507094006 | 69 | 354 | 2.6 | 5.2 | 0.00 | 0.00 | 0.00 | 72 | 1014.7 |
| 20260507093508 | 69 | 332 | 0.9 | 3.5 | 0.00 | 0.00 | 0.00 | 72 | 1014.7 |
| 20260507093004 | 69 | 332 | 0.9 | 3.5 | 0.00 | 0.00 | 0.00 | 72 | 1014.7 |
| 20260507092505 | 69 | 359 | 1.7 | 2.6 | 0.00 | 0.00 | 0.00 | 73 | 1014.6 |
| 20260507092006 | 69 | 341 | 0.9 | 3.5 | 0.00 | 0.00 | 0.00 | 73 | 1014.6 |
| 20260507091503 | 69 | 359 | 1.7 | 5.2 | 0.00 | 0.00 | 0.00 | 73 | 1014.5 |
| 20260507091002 | 69 | 340 | 1.7 | 4.3 | 0.00 | 0.00 | 0.00 | 73 | 1014.5 |
| 20260507090559 | 69 | 348 | 1.7 | 3.5 | 0.00 | 0.00 | 0.00 | 73 | 1014.4 |
| 20260507090058 | 69 | 324 | 1.7 | 4.3 | 0.00 | 0.00 | 0.00 | 73 | 1014.5 |
| 20260507085559 | 70 | 339 | 1.7 | 4.3 | 0.00 | 0.00 | 0.00 | 73 | 1014.4 |
| 20260507085058 | 70 | 347 | 1.7 | 4.3 | 0.00 | 0.00 | 0.00 | 73 | 1014.4 |
| 20260507084610 | 70 | 359 | 0.9 | 4.3 | 0.00 | 0.00 | 0.00 | 73 | 1014.4 |
| 20260507084056 | 70 | 359 | 0.9 | 3.5 | 0.00 | 0.00 | 0.00 | 73 | 1014.6 |
| 20260507083556 | 70 | 8 | 1.7 | 3.5 | 0.00 | 0.00 | 0.00 | 73 | 1014.4 |
| 20260507083055 | 70 | 349 | 0.9 | 4.3 | 0.00 | 0.00 | 0.00 | 73 | 1014.5 |
| 20260507082555 | 70 | 335 | 0.9 | 4.3 | 0.00 | 0.00 | 0.00 | 73 | 1014.3 |
| 20260507082054 | 70 | 334 | 1.7 | 3.5 | 0.00 | 0.00 | 0.00 | 72 | 1014.4 |
| 20260507081600 | 70 | 333 | 1.7 | 2.6 | 0.00 | 0.00 | 0.00 | 72 | 1014.5 |
| 20260507081054 | 70 | 333 | 0.9 | 4.3 | 0.00 | 0.00 | 0.00 | 72 | 1014.5 |
| 20260507080552 | 70 | 334 | 0.9 | 4.3 | 0.00 | 0.00 | 0.00 | 72 | 1014.6 |
| 20260507080051 | 71 | 333 | 0.0 | 0.9 | 0.00 | 0.00 | 0.00 | 71 | 1014.6 |
| 20260507075552 | 71 | 333 | 0.0 | 1.7 | 0.00 | 0.00 | 0.00 | 71 | 1014.8 |
| 20260507075051 | 71 | 333 | 0.0 | 1.7 | 0.00 | 0.00 | 0.00 | 70 | 1014.6 |
| 20260507074556 | 71 | 333 | 0.0 | 2.6 | 0.00 | 0.00 | 0.00 | 70 | 1014.7 |
| 20260507074054 | 71 | 334 | 0.9 | 3.5 | 0.00 | 0.00 | 0.00 | 70 | 1014.7 |
| 20260507073549 | 71 | 333 | 0.9 | 4.3 | 0.00 | 0.00 | 0.00 | 70 | 1014.7 |
| 20260507073052 | 71 | 333 | 1.7 | 4.3 | 0.00 | 0.00 | 0.00 | 70 | 1014.7 |
| 20260507072548 | 71 | 334 | 1.7 | 5.2 | 0.00 | 0.00 | 0.00 | 69 | 1014.6 |
| 20260507072050 | 71 | 334 | 1.7 | 5.2 | 0.00 | 0.00 | 0.00 | 69 | 1014.5 |
| 20260507071547 | 71 | 333 | 0.0 | 2.6 | 0.00 | 0.00 | 0.00 | 69 | 1014.5 |
| 20260507071046 | 71 | 333 | 0.0 | 3.5 | 0.00 | 0.00 | 0.00 | 69 | 1014.6 |
| 20260507070516 | 71 | 359 | 1.7 | 3.5 | 0.00 | 0.00 | 0.00 | 68 | 1014.6 |
| 20260507070016 | 71 | 333 | 0.9 | 2.6 | 0.00 | 0.00 | 0.00 | 68 | 1014.6 |
| 20260507065515 | 71 | 333 | 0.9 | 3.5 | 0.00 | 0.00 | 0.00 | 68 | 1014.5 |
| 20260507065014 | 72 | 4 | 1.7 | 4.3 | 0.00 | 0.00 | 0.00 | 67 | 1014.5 |
| 20260507064513 | 72 | 342 | 2.6 | 4.3 | 0.00 | 0.00 | 0.00 | 67 | 1014.7 |
| 20260507064013 | 72 | 58 | 0.9 | 3.5 | 0.00 | 0.00 | 0.00 | 67 | 1014.7 |
| 20260507063514 | 72 | 326 | 1.7 | 4.3 | 0.00 | 0.00 | 0.00 | 66 | 1014.6 |
| 20260507063011 | 72 | 52 | 0.0 | 4.3 | 0.00 | 0.00 | 0.00 | 66 | 1014.6 |
| 20260507062511 | 72 | 36 | 1.7 | 3.5 | 0.00 | 0.00 | 0.00 | 66 | 1014.6 |
| 20260507062010 | 72 | 354 | 1.7 | 7.0 | 0.00 | 0.00 | 0.00 | 66 | 1014.7 |
| 20260507061510 | 72 | 335 | 1.7 | 7.0 | 0.00 | 0.00 | 0.00 | 66 | 1014.8 |
| 20260507061010 | 72 | 350 | 2.6 | 4.3 | 0.00 | 0.00 | 0.00 | 65 | 1014.8 |
| 20260507060507 | 73 | 354 | 0.9 | 4.3 | 0.00 | 0.00 | 0.00 | 64 | 1014.7 |
| 20260507060007 | 73 | 4 | 0.9 | 4.3 | 0.00 | 0.00 | 0.00 | 64 | 1014.8 |
| 20260507055507 | 73 | 329 | 1.7 | 4.3 | 0.00 | 0.00 | 0.00 | 64 | 1014.7 |
| 20260507055011 | 73 | 341 | 0.9 | 4.3 | 0.00 | 0.00 | 0.00 | 64 | 1014.7 |
| 20260507054505 | 73 | 14 | 0.9 | 4.3 | 0.00 | 0.00 | 0.00 | 63 | 1014.8 |
| 20260507054005 | 73 | 44 | 1.7 | 4.3 | 0.00 | 0.00 | 0.00 | 63 | 1014.7 |
| 20260507053504 | 73 | 34 | 2.6 | 5.2 | 0.00 | 0.00 | 0.00 | 62 | 1014.9 |
| 20260507053001 | 74 | 12 | 1.7 | 5.2 | 0.00 | 0.00 | 0.00 | 62 | 1014.7 |
| 20260507052604 | 74 | 322 | 1.7 | 4.3 | 0.00 | 0.00 | 0.00 | 61 | 1014.6 |
| 20260507052100 | 74 | 31 | 0.9 | 5.2 | 0.00 | 0.00 | 0.00 | 61 | 1014.5 |
| 20260507051600 | 74 | 64 | 0.9 | 5.2 | 0.00 | 0.00 | 0.00 | 61 | 1014.5 |
| 20260507051058 | 74 | 58 | 0.9 | 4.3 | 0.00 | 0.00 | 0.00 | 61 | 1014.5 |
| 20260507050601 | 74 | 339 | 0.9 | 4.3 | 0.00 | 0.00 | 0.00 | 61 | 1014.3 |
| 20260507050057 | 74 | 327 | 2.6 | 7.0 | 0.00 | 0.00 | 0.00 | 61 | 1014.3 |
| 20260507045557 | 74 | 354 | 2.6 | 7.0 | 0.00 | 0.00 | 0.00 | 61 | 1014.2 |
| 20260507045056 | 74 | 341 | 1.7 | 7.0 | 0.00 | 0.00 | 0.00 | 60 | 1014.2 |
| 20260507044609 | 74 | 35 | 1.7 | 5.2 | 0.00 | 0.00 | 0.00 | 60 | 1014.2 |
| 20260507044055 | 75 | 4 | 2.6 | 5.2 | 0.00 | 0.00 | 0.00 | 60 | 1014.1 |
| 20260507043553 | 75 | 330 | 1.7 | 8.7 | 0.00 | 0.00 | 0.00 | 59 | 1014.2 |
| 20260507043026 | 75 | 14 | 4.3 | 8.7 | 0.00 | 0.00 | 0.00 | 59 | 1014.0 |
| 20260507042522 | 75 | 341 | 4.3 | 8.7 | 0.00 | 0.00 | 0.00 | 58 | 1014.0 |
| 20260507042021 | 75 | 328 | 1.7 | 8.7 | 0.00 | 0.00 | 0.00 | 58 | 1013.8 |
| 20260507041521 | 75 | 333 | 3.5 | 8.7 | 0.00 | 0.00 | 0.00 | 57 | 1013.9 |
| 20260507041020 | 75 | 343 | 2.6 | 7.0 | 0.00 | 0.00 | 0.00 | 57 | 1013.7 |
| 20260507040519 | 76 | 349 | 2.6 | 7.0 | 0.00 | 0.00 | 0.00 | 56 | 1013.6 |
| 20260507040015 | 76 | 347 | 2.6 | 7.0 | 0.00 | 0.00 | 0.00 | 55 | 1013.6 |
| 20260507035514 | 76 | 314 | 2.6 | 7.0 | 0.00 | 0.00 | 0.00 | 54 | 1013.5 |
| 20260507035013 | 76 | 331 | 1.7 | 7.8 | 0.00 | 0.00 | 0.00 | 54 | 1013.3 |
| 20260507034521 | 77 | 359 | 3.5 | 10.4 | 0.00 | 0.00 | 0.00 | 53 | 1013.2 |
| 20260507034012 | 77 | 31 | 2.6 | 10.4 | 0.00 | 0.00 | 0.00 | 52 | 1012.9 |
| 20260507033511 | 77 | 12 | 2.6 | 7.0 | 0.00 | 0.00 | 0.00 | 50 | 1012.9 |
| 20260507033012 | 77 | 354 | 3.5 | 7.8 | 0.00 | 0.00 | 0.00 | 51 | 1012.9 |
| 20260507032512 | 77 | 359 | 4.3 | 7.8 | 0.00 | 0.00 | 0.00 | 52 | 1012.8 |
| 20260507032010 | 77 | 16 | 2.6 | 7.8 | 0.00 | 0.00 | 0.00 | 53 | 1012.8 |
| 20260507031509 | 77 | 322 | 2.6 | 7.0 | 0.00 | 0.00 | 0.00 | 54 | 1012.8 |
| 20260507031009 | 77 | 359 | 1.7 | 4.3 | 0.00 | 0.00 | 0.00 | 54 | 1012.7 |
| 20260507030511 | 77 | 9 | 1.7 | 7.0 | 0.00 | 0.00 | 0.00 | 54 | 1012.7 |
| 20260507030008 | 77 | 4 | 1.7 | 8.7 | 0.00 | 0.00 | 0.00 | 54 | 1012.4 |
| 20260507025508 | 77 | 359 | 3.5 | 8.7 | 0.00 | 0.00 | 0.00 | 54 | 1012.4 |
| 20260507025005 | 78 | 10 | 4.3 | 8.7 | 0.00 | 0.00 | 0.00 | 54 | 1012.4 |
| 20260507024510 | 78 | 342 | 3.5 | 8.7 | 0.00 | 0.00 | 0.00 | 54 | 1012.3 |
| 20260507024003 | 78 | 359 | 5.2 | 8.7 | 0.00 | 0.00 | 0.00 | 54 | 1012.3 |
| 20260507023502 | 78 | 10 | 3.5 | 7.0 | 0.00 | 0.00 | 0.00 | 53 | 1012.1 |
| 20260507023006 | 78 | 37 | 2.6 | 8.7 | 0.00 | 0.00 | 0.00 | 53 | 1012.1 |
| 20260507022501 | 79 | 32 | 4.3 | 8.7 | 0.00 | 0.00 | 0.00 | 52 | 1012.0 |
| 20260507022100 | 79 | 349 | 3.5 | 7.8 | 0.00 | 0.00 | 0.00 | 52 | 1011.9 |
| 20260507021559 | 79 | 317 | 3.5 | 7.8 | 0.00 | 0.00 | 0.00 | 52 | 1011.9 |
| 20260507021058 | 79 | 349 | 4.3 | 9.6 | 0.00 | 0.00 | 0.00 | 51 | 1011.8 |
| 20260507020557 | 79 | 341 | 3.5 | 10.4 | 0.00 | 0.00 | 0.00 | 50 | 1011.7 |
| 20260507020103 | 80 | 359 | 5.2 | 11.3 | 0.00 | 0.00 | 0.00 | 49 | 1011.6 |
| 20260507015552 | 80 | 308 | 4.3 | 10.4 | 0.00 | 0.00 | 0.00 | 48 | 1011.4 |
| 20260507015051 | 81 | 12 | 5.2 | 9.6 | 0.00 | 0.00 | 0.00 | 47 | 1011.6 |
| 20260507014549 | 81 | 14 | 3.5 | 9.6 | 0.00 | 0.00 | 0.00 | 45 | 1011.5 |
| 20260507014049 | 82 | 354 | 5.2 | 11.3 | 0.00 | 0.00 | 0.00 | 44 | 1011.4 |
| 20260507013548 | 83 | 4 | 5.2 | 11.3 | 0.00 | 0.00 | 0.00 | 41 | 1011.1 |
| 20260507013046 | 84 | 20 | 4.3 | 7.0 | 0.00 | 0.00 | 0.00 | 37 | 1011.0 |
| 20260507012546 | 84 | 343 | 1.7 | 5.2 | 0.00 | 0.00 | 0.00 | 34 | 1011.0 |
| 20260507012042 | 85 | 349 | 3.5 | 5.2 | 0.00 | 0.00 | 0.00 | 34 | 1010.9 |
| 20260507011546 | 85 | 337 | 1.7 | 4.3 | 0.00 | 0.00 | 0.00 | 33 | 1010.8 |
| 20260507011040 | 85 | 343 | 2.6 | 4.3 | 0.00 | 0.00 | 0.00 | 31 | 1010.9 |
| 20260507010539 | 85 | 341 | 1.7 | 4.3 | 0.00 | 0.00 | 0.00 | 28 | 1010.8 |
| 20260507010039 | 86 | 17 | 2.6 | 7.0 | 0.00 | 0.00 | 0.00 | 29 | 1010.8 |
| 20260507005507 | 86 | 322 | 1.7 | 7.0 | 0.00 | 0.00 | 0.00 | 28 | 1010.9 |
| 20260507005006 | 86 | 359 | 2.6 | 7.0 | 0.00 | 0.00 | 0.00 | 29 | 1010.8 |
| 20260507004505 | 87 | 359 | 2.6 | 5.2 | 0.00 | 0.00 | 0.00 | 28 | 1010.7 |
| 20260507004004 | 87 | 354 | 2.6 | 7.8 | 0.00 | 0.00 | 0.00 | 25 | 1010.8 |
| 20260507003504 | 87 | 346 | 3.5 | 7.8 | 0.00 | 0.00 | 0.00 | 22 | 1010.7 |
| 20260507003002 | 88 | 8 | 3.5 | 8.7 | 0.00 | 0.00 | 0.00 | 22 | 1010.6 |
| 20260507002558 | 88 | 345 | 3.5 | 8.7 | 0.00 | 0.00 | 0.00 | 20 | 1010.6 |
| 20260507002057 | 88 | 354 | 4.3 | 8.7 | 0.00 | 0.00 | 0.00 | 20 | 1010.4 |
| 20260507001614 | 89 | 313 | 3.5 | 10.4 | 0.00 | 0.00 | 0.00 | 20 | 1010.4 |
| 20260507001054 | 89 | 359 | 2.6 | 11.3 | 0.00 | 0.00 | 0.00 | 20 | 1010.5 |
| 20260507000556 | 90 | 346 | 5.2 | 11.3 | 0.00 | 0.00 | 0.00 | 19 | 1010.5 |
| 20260507000054 | 90 | 322 | 3.5 | 8.7 | 0.00 | 0.00 | 0.00 | 18 | 1010.5 |
| 20260506235551 | 91 | 285 | 4.3 | 7.8 | 0.00 | 0.00 | 0.00 | 17 | 1010.4 |
| 20260506235050 | 92 | 305 | 1.7 | 7.0 | 0.00 | 0.00 | 0.00 | 14 | 1010.4 |
| 20260506234554 | 92 | 338 | 3.5 | 8.7 | 0.00 | 0.00 | 0.00 | 12 | 1010.4 |
| 20260506234053 | 92 | 319 | 1.7 | 8.7 | 0.00 | 0.00 | 0.00 | 10 | 1010.4 |
| 20260506233550 | 92 | 328 | 4.3 | 9.6 | 0.00 | 0.00 | 0.00 | 10 | 1010.3 |
| 20260506233051 | 92 | 339 | 3.5 | 9.6 | 0.00 | 0.00 | 0.00 | 10 | 1010.3 |
| 20260506232547 | 92 | 303 | 4.3 | 9.6 | 0.00 | 0.00 | 0.00 | 10 | 1010.4 |
| 20260506232046 | 92 | 8 | 3.5 | 9.6 | 0.00 | 0.00 | 0.00 | 10 | 1010.3 |
| 20260506231549 | 92 | 320 | 4.3 | 10.4 | 0.00 | 0.00 | 0.00 | 9 | 1010.4 |
| 20260506231046 | 93 | 308 | 5.2 | 10.4 | 0.00 | 0.00 | 0.00 | 8 | 1010.4 |
| 20260506230544 | 92 | 321 | 4.3 | 10.4 | 0.00 | 0.00 | 0.00 | 8 | 1010.3 |
| 20260506230054 | 92 | 290 | 3.5 | 9.6 | 0.00 | 0.00 | 0.00 | 7 | 1010.4 |
| 20260506225548 | 92 | 332 | 4.3 | 10.4 | 0.00 | 0.00 | 0.00 | 7 | 1010.2 |
| 20260506225044 | 93 | 309 | 6.1 | 10.4 | 0.00 | 0.00 | 0.00 | 7 | 1010.3 |
| 20260506224545 | 93 | 359 | 3.5 | 11.3 | 0.00 | 0.00 | 0.00 | 7 | 1010.3 |
| 20260506224043 | 93 | 359 | 3.5 | 10.4 | 0.00 | 0.00 | 0.00 | 7 | 1010.4 |
| 20260506223548 | 93 | 326 | 3.5 | 12.2 | 0.00 | 0.00 | 0.00 | 7 | 1010.4 |
| 20260506223044 | 93 | 359 | 6.1 | 12.2 | 0.00 | 0.00 | 0.00 | 7 | 1010.3 |
| 20260506222541 | 93 | 359 | 7.0 | 11.3 | 0.00 | 0.00 | 0.00 | 7 | 1010.4 |
| 20260506222042 | 93 | 321 | 3.5 | 11.3 | 0.00 | 0.00 | 0.00 | 7 | 1010.5 |
| 20260506221551 | 93 | 322 | 3.5 | 8.7 | 0.00 | 0.00 | 0.00 | 7 | 1010.5 |
| 20260506221041 | 93 | 301 | 4.3 | 9.6 | 0.00 | 0.00 | 0.00 | 7 | 1010.4 |
| 20260506220541 | 93 | 354 | 5.2 | 11.3 | 0.00 | 0.00 | 0.00 | 7 | 1010.4 |
| 20260506220041 | 93 | 322 | 5.2 | 11.3 | 0.00 | 0.00 | 0.00 | 7 | 1010.4 |
| 20260506215542 | 93 | 345 | 5.2 | 12.2 | 0.00 | 0.00 | 0.00 | 7 | 1010.4 |
| 20260506215039 | 93 | 29 | 6.1 | 12.2 | 0.00 | 0.00 | 0.00 | 7 | 1010.4 |
| 20260506214539 | 93 | 316 | 6.1 | 12.2 | 0.00 | 0.00 | 0.00 | 7 | 1010.4 |
| 20260506214039 | 93 | 359 | 7.0 | 13.9 | 0.00 | 0.00 | 0.00 | 7 | 1010.5 |
| 20260506213540 | 93 | 349 | 6.1 | 13.9 | 0.00 | 0.00 | 0.00 | 7 | 1010.5 |
| 20260506213038 | 94 | 332 | 5.2 | 13.0 | 0.00 | 0.00 | 0.00 | 7 | 1010.6 |
| 20260506212537 | 94 | 359 | 4.3 | 15.6 | 0.00 | 0.00 | 0.00 | 7 | 1010.5 |
| 20260506212009 | 94 | 359 | 6.1 | 14.8 | 0.00 | 0.00 | 0.00 | 7 | 1010.5 |
| 20260506211505 | 94 | 47 | 5.2 | 14.8 | 0.00 | 0.00 | 0.00 | 7 | 1010.7 |
| 20260506211005 | 94 | 316 | 6.1 | 11.3 | 0.00 | 0.00 | 0.00 | 7 | 1011.0 |
| 20260506210510 | 94 | 258 | 3.5 | 9.6 | 0.00 | 0.00 | 0.00 | 7 | 1011.0 |
| 20260506210007 | 94 | 283 | 4.3 | 10.4 | 0.00 | 0.00 | 0.00 | 7 | 1011.2 |
| 20260506205503 | 94 | 333 | 1.7 | 7.8 | 0.00 | 0.00 | 0.00 | 7 | 1011.3 |
| 20260506205100 | 95 | 82 | 2.6 | 9.6 | 0.00 | 0.00 | 0.00 | 7 | 1011.3 |
| 20260506204602 | 94 | 319 | 2.6 | 9.6 | 0.00 | 0.00 | 0.00 | 7 | 1011.3 |
| 20260506204058 | 93 | 298 | 3.5 | 11.3 | 0.00 | 0.00 | 0.00 | 7 | 1011.3 |
| 20260506203557 | 93 | 342 | 3.5 | 11.3 | 0.00 | 0.00 | 0.00 | 7 | 1011.4 |
| 20260506203120 | 94 | 304 | 4.3 | 9.6 | 0.00 | 0.00 | 0.00 | 7 | 1011.5 |
| 20260506202557 | 94 | 67 | 1.7 | 8.7 | 0.00 | 0.00 | 0.00 | 6 | 1011.7 |
| 20260506202055 | 94 | 110 | 1.7 | 4.3 | 0.00 | 0.00 | 0.00 | 6 | 1011.8 |
| 20260506201555 | 94 | 117 | 0.9 | 7.8 | 0.00 | 0.00 | 0.00 | 7 | 1011.8 |
| 20260506201057 | 93 | 78 | 2.6 | 7.8 | 0.00 | 0.00 | 0.00 | 6 | 1011.9 |
| 20260506200557 | 94 | 24 | 3.5 | 8.7 | 0.00 | 0.00 | 0.00 | 7 | 1011.9 |
| 20260506200056 | 93 | 359 | 3.5 | 8.7 | 0.00 | 0.00 | 0.00 | 7 | 1011.9 |
| 20260506195551 | 93 | 322 | 3.5 | 7.8 | 0.00 | 0.00 | 0.00 | 7 | 1012.1 |
| 20260506195022 | 93 | 52 | 0.9 | 9.6 | 0.00 | 0.00 | 0.00 | 7 | 1012.1 |
| 20260506194525 | 93 | 330 | 2.6 | 7.0 | 0.00 | 0.00 | 0.00 | 7 | 1012.3 |
| 20260506194022 | 92 | 269 | 0.9 | 9.6 | 0.00 | 0.00 | 0.00 | 7 | 1012.4 |
| 20260506193520 | 92 | 10 | 1.7 | 10.4 | 0.00 | 0.00 | 0.00 | 7 | 1012.4 |
| 20260506193032 | 92 | 21 | 5.2 | 10.4 | 0.00 | 0.00 | 0.00 | 7 | 1012.5 |
| 20260506192519 | 93 | 4 | 1.7 | 7.0 | 0.00 | 0.00 | 0.00 | 7 | 1012.5 |
| 20260506192014 | 93 | 325 | 0.9 | 6.1 | 0.00 | 0.00 | 0.00 | 7 | 1012.6 |
| 20260506191513 | 92 | 316 | 0.9 | 7.8 | 0.00 | 0.00 | 0.00 | 7 | 1012.6 |
| 20260506191013 | 91 | 328 | 1.7 | 7.8 | 0.00 | 0.00 | 0.00 | 7 | 1012.7 |
| 20260506190511 | 91 | 45 | 2.6 | 9.6 | 0.00 | 0.00 | 0.00 | 7 | 1012.7 |
| 20260506190012 | 91 | 59 | 4.3 | 9.6 | 0.00 | 0.00 | 0.00 | 7 | 1012.7 |
| 20260506185512 | 91 | 335 | 3.5 | 8.7 | 0.00 | 0.00 | 0.00 | 7 | 1012.9 |
| 20260506185010 | 91 | 320 | 1.7 | 5.2 | 0.00 | 0.00 | 0.00 | 7 | 1012.9 |
| 20260506184509 | 91 | 348 | 1.7 | 5.2 | 0.00 | 0.00 | 0.00 | 7 | 1012.9 |
| 20260506184008 | 91 | 311 | 1.7 | 7.8 | 0.00 | 0.00 | 0.00 | 7 | 1013.1 |
| 20260506183512 | 90 | 354 | 2.6 | 7.8 | 0.00 | 0.00 | 0.00 | 7 | 1013.1 |
| 20260506183008 | 90 | 55 | 1.7 | 8.7 | 0.00 | 0.00 | 0.00 | 7 | 1013.1 |
| 20260506182511 | 90 | 86 | 3.5 | 8.7 | 0.00 | 0.00 | 0.00 | 7 | 1013.2 |
| 20260506182006 | 90 | 359 | 2.6 | 7.8 | 0.00 | 0.00 | 0.00 | 7 | 1013.3 |
| 20260506181505 | 90 | 322 | 1.7 | 4.3 | 0.00 | 0.00 | 0.00 | 7 | 1013.4 |
| 20260506181006 | 89 | 149 | 0.9 | 4.3 | 0.00 | 0.00 | 0.00 | 7 | 1013.4 |
| 20260506180506 | 89 | 359 | 1.7 | 7.8 | 0.00 | 0.00 | 0.00 | 7 | 1013.4 |
| 20260506180008 | 89 | 359 | 3.5 | 7.8 | 0.00 | 0.00 | 0.00 | 7 | 1013.5 |
| 20260506175505 | 88 | 40 | 2.6 | 7.0 | 0.00 | 0.00 | 0.00 | 8 | 1013.5 |
| 20260506175005 | 88 | 77 | 2.6 | 7.8 | 0.00 | 0.00 | 0.00 | 7 | 1013.6 |
| 20260506174505 | 89 | 359 | 3.5 | 7.8 | 0.00 | 0.00 | 0.00 | 7 | 1013.7 |
| 20260506174005 | 88 | 4 | 2.6 | 7.8 | 0.00 | 0.00 | 0.00 | 7 | 1013.9 |
| 20260506173509 | 88 | 70 | 1.7 | 8.7 | 0.00 | 0.00 | 0.00 | 7 | 1014.1 |
| 20260506173005 | 88 | 70 | 3.5 | 10.4 | 0.00 | 0.00 | 0.00 | 7 | 1014.4 |
| 20260506172505 | 88 | 60 | 3.5 | 10.4 | 0.00 | 0.00 | 0.00 | 7 | 1014.3 |
| 20260506172003 | 88 | 73 | 1.7 | 8.7 | 0.00 | 0.00 | 0.00 | 7 | 1014.3 |
| 20260506171503 | 88 | 62 | 4.3 | 8.7 | 0.00 | 0.00 | 0.00 | 7 | 1014.4 |
| 20260506171006 | 88 | 22 | 0.9 | 7.0 | 0.00 | 0.00 | 0.00 | 7 | 1014.3 |
| 20260506170502 | 88 | 359 | 1.7 | 7.0 | 0.00 | 0.00 | 0.00 | 7 | 1014.4 |
| 20260506170002 | 88 | 176 | 2.6 | 7.0 | 0.00 | 0.00 | 0.00 | 7 | 1014.5 |
| 20260506165502 | 88 | 174 | 0.9 | 7.8 | 0.00 | 0.00 | 0.00 | 7 | 1014.4 |
| 20260506165002 | 88 | 354 | 3.5 | 7.8 | 0.00 | 0.00 | 0.00 | 7 | 1014.5 |
| 20260506164509 | 87 | 131 | 1.7 | 6.1 | 0.00 | 0.00 | 0.00 | 7 | 1014.4 |
| 20260506164003 | 87 | 121 | 0.9 | 8.7 | 0.00 | 0.00 | 0.00 | 7 | 1014.5 |
| 20260506163501 | 87 | 110 | 1.7 | 8.7 | 0.00 | 0.00 | 0.00 | 7 | 1014.5 |
| 20260506163004 | 86 | 62 | 2.6 | 7.8 | 0.00 | 0.00 | 0.00 | 7 | 1014.6 |
| 20260506162503 | 86 | 53 | 0.9 | 7.0 | 0.00 | 0.00 | 0.00 | 8 | 1014.6 |
| 20260506162001 | 86 | 75 | 2.6 | 7.0 | 0.00 | 0.00 | 0.00 | 8 | 1014.6 |
| 20260506161600 | 86 | 55 | 1.7 | 5.2 | 0.00 | 0.00 | 0.00 | 8 | 1014.6 |
| 20260506161102 | 86 | 68 | 1.7 | 7.8 | 0.00 | 0.00 | 0.00 | 8 | 1014.7 |
| 20260506160558 | 86 | 141 | 2.6 | 7.8 | 0.00 | 0.00 | 0.00 | 8 | 1014.6 |
| 20260506160124 | 85 | 147 | 0.0 | 7.0 | 0.00 | 0.00 | 0.00 | 8 | 1014.7 |
| 20260506155558 | 85 | 80 | 2.6 | 7.0 | 0.00 | 0.00 | 0.00 | 8 | 1014.8 |
| 20260506155102 | 85 | 63 | 1.7 | 6.1 | 0.00 | 0.00 | 0.00 | 8 | 1014.7 |
| 20260506154559 | 85 | 64 | 1.7 | 6.1 | 0.00 | 0.00 | 0.00 | 9 | 1014.8 |
| 20260506154058 | 84 | 121 | 1.7 | 6.1 | 0.00 | 0.00 | 0.00 | 9 | 1014.7 |
| 20260506153601 | 84 | 139 | 2.6 | 4.3 | 0.00 | 0.00 | 0.00 | 8 | 1014.7 |
| 20260506153058 | 84 | 88 | 0.9 | 4.3 | 0.00 | 0.00 | 0.00 | 9 | 1014.7 |
| 20260506152557 | 85 | 58 | 0.9 | 7.8 | 0.00 | 0.00 | 0.00 | 8 | 1014.8 |
| 20260506152101 | 85 | 41 | 4.3 | 7.8 | 0.00 | 0.00 | 0.00 | 9 | 1014.8 |
| 20260506151557 | 85 | 8 | 0.0 | 1.7 | 0.00 | 0.00 | 0.00 | 9 | 1014.8 |
| 20260506151055 | 84 | 8 | 0.0 | 2.6 | 0.00 | 0.00 | 0.00 | 9 | 1014.7 |
| 20260506150556 | 83 | 8 | 0.9 | 4.3 | 0.00 | 0.00 | 0.00 | 9 | 1014.9 |
| 20260506150103 | 83 | 8 | 0.9 | 5.2 | 0.00 | 0.00 | 0.00 | 9 | 1014.9 |
| 20260506145555 | 83 | 354 | 1.7 | 5.2 | 0.00 | 0.00 | 0.00 | 10 | 1015.0 |
| 20260506145054 | 82 | 14 | 0.9 | 5.2 | 0.00 | 0.00 | 0.00 | 10 | 1015.0 |
| 20260506144555 | 82 | 81 | 1.7 | 5.2 | 0.00 | 0.00 | 0.00 | 10 | 1015.1 |
| 20260506144054 | 82 | 49 | 0.9 | 5.2 | 0.00 | 0.00 | 0.00 | 10 | 1015.0 |
| 20260506143554 | 81 | 75 | 0.9 | 7.0 | 0.00 | 0.00 | 0.00 | 11 | 1015.1 |
| 20260506143054 | 81 | 118 | 1.7 | 7.0 | 0.00 | 0.00 | 0.00 | 11 | 1015.1 |
| 20260506142554 | 80 | 127 | 1.7 | 6.1 | 0.00 | 0.00 | 0.00 | 11 | 1015.1 |
| 20260506142053 | 80 | 124 | 2.6 | 7.0 | 0.00 | 0.00 | 0.00 | 11 | 1015.1 |
| 20260506141550 | 80 | 158 | 2.6 | 7.8 | 0.00 | 0.00 | 0.00 | 10 | 1015.1 |
| 20260506141050 | 80 | 149 | 2.6 | 7.0 | 0.00 | 0.00 | 0.00 | 11 | 1015.1 |
| 20260506140550 | 80 | 172 | 1.7 | 7.8 | 0.00 | 0.00 | 0.00 | 12 | 1015.1 |
| 20260506140050 | 79 | 132 | 0.9 | 7.8 | 0.00 | 0.00 | 0.00 | 12 | 1015.0 |
| 20260506135549 | 79 | 122 | 0.9 | 4.3 | 0.00 | 0.00 | 0.00 | 13 | 1015.1 |
| 20260506135049 | 79 | 75 | 0.0 | 7.0 | 0.00 | 0.00 | 0.00 | 13 | 1015.0 |
| 20260506134552 | 78 | 139 | 1.7 | 7.0 | 0.00 | 0.00 | 0.00 | 13 | 1015.1 |
| 20260506134050 | 78 | 143 | 0.9 | 2.6 | 0.00 | 0.00 | 0.00 | 14 | 1015.0 |
| 20260506133548 | 78 | 143 | 0.9 | 1.7 | 0.00 | 0.00 | 0.00 | 15 | 1015.0 |
| 20260506133104 | 78 | 143 | 0.0 | 1.7 | 0.00 | 0.00 | 0.00 | 15 | 1014.8 |
| 20260506132546 | 77 | 143 | 0.0 | 0.9 | 0.00 | 0.00 | 0.00 | 16 | 1014.8 |
| 20260506132047 | 77 | 143 | 0.0 | 1.7 | 0.00 | 0.00 | 0.00 | 17 | 1014.7 |
| 20260506131545 | 76 | 143 | 0.0 | 1.7 | 0.00 | 0.00 | 0.00 | 16 | 1014.7 |
| 20260506131044 | 76 | 143 | 0.0 | 0.9 | 0.00 | 0.00 | 0.00 | 16 | 1014.6 |
| 20260506130544 | 75 | 143 | 0.0 | 0.9 | 0.00 | 0.00 | 0.00 | 17 | 1014.7 |
| 20260506130043 | 75 | 143 | 0.0 | 0.9 | 0.00 | 0.00 | 0.00 | 17 | 1014.7 |
| 20260506125542 | 74 | 143 | 0.0 | 0.9 | 0.00 | 0.00 | 0.00 | 16 | 1014.5 |
| 20260506125042 | 74 | 143 | 0.0 | 1.7 | 0.00 | 0.00 | 0.00 | 16 | 1014.4 |
| 20260506124541 | 73 | 143 | 0.0 | 1.7 | 0.00 | 0.00 | 0.00 | 16 | 1014.4 |
| 20260506124042 | 74 | 143 | 0.0 | 1.7 | 0.00 | 0.00 | 0.00 | 15 | 1014.2 |
| 20260506123542 | 74 | 143 | 0.0 | 2.6 | 0.00 | 0.00 | 0.00 | 15 | 1014.3 |
| 20260506123039 | 74 | 143 | 0.0 | 2.6 | 0.00 | 0.00 | 0.00 | 14 | 1014.1 |
| 20260506122535 | 75 | 143 | 0.0 | 3.5 | 0.00 | 0.00 | 0.00 | 14 | 1014.2 |
| 20260506122038 | 75 | 143 | 0.0 | 4.3 | 0.00 | 0.00 | 0.00 | 14 | 1014.1 |
| 20260506121534 | 75 | 136 | 1.7 | 9.6 | 0.00 | 0.00 | 0.00 | 13 | 1014.1 |
| 20260506121032 | 75 | 143 | 1.7 | 4.3 | 0.00 | 0.00 | 0.00 | 13 | 1014.1 |
| 20260506120532 | 76 | 76 | 0.0 | 7.8 | 0.00 | 0.00 | 0.00 | 13 | 1014.0 |
| 20260506120050 | 76 | 118 | 3.5 | 7.8 | 0.00 | 0.00 | 0.00 | 13 | 1014.0 |
| 20260506115531 | 76 | 127 | 3.5 | 8.7 | 0.00 | 0.00 | 0.00 | 13 | 1013.9 |
| 20260506115030 | 76 | 141 | 4.3 | 8.7 | 0.00 | 0.00 | 0.00 | 13 | 1013.8 |
| 20260506114534 | 76 | 118 | 3.5 | 10.4 | 0.00 | 0.00 | 0.00 | 13 | 1013.8 |